Location: Newark
(34.1333°N, 7.9667°W)
Time: 01:07:31
(UTC+00:00)

Envisat - Pass Details

Date: 04 October 2021
Orbit: 764 x 766 km, 98.2° (Epoch: 17 October)

Event Time Altitude Azimuth Distance (km) Brightness Sun altitude
Rises 05:05:13 0° 21° (NNE) 3,234 6.6 -18.1°
Reaches altitude 10° 05:07:39 10° 28° (NNE) 2,304 5.9 -17.6°
Maximum altitude 05:12:26 41° 99° (E) 1,095 4.3 -16.6°
Drops below altitude 10° 05:17:11 10° 169° (S) 2,290 5.5 -15.6°
Sets 05:19:36 0° 176° (S) 3,212 6.2 -15.1°
